Location: Caltech
(34.1382°N, 118.1253°W)
Time: 10:55:58
(UTC-07:00)

Aureole 2 Rocket - Visible Passes

Search period start: 29 July 2015 00:00
Search period end: 08 August 2015 00:00
Orbit: 341 x 676 km, 73.9° (Epoch: 29 July)

Date Brightness Start Highest point End Pass type
(mag) Time Alt. Az. Time Alt. Az. Time Alt. Az.
29 Jul 3.8 21:53:13 10° N 21:54:40 26° N 21:54:40 26° N visible
30 Jul 3.2 21:35:44 10° N 21:37:38 31° NNE 21:37:38 31° NNE visible
31 Jul 2.9 21:18:16 10° N 21:20:37 31° ENE 21:20:37 31° ENE visible
01 Aug 3.1 21:00:48 10° N 21:03:12 26° ENE 21:03:38 25° E visible
02 Aug 3.4 20:43:21 10° NNE 20:45:35 21° ENE 20:46:41 17° ESE visible
03 Aug 3.7 20:25:55 10° NNE 20:27:55 18° ENE 20:29:48 11° ESE visible
04 Aug 5.0 21:45:31 10° W 21:46:37 11° WSW 21:47:35 10° WSW visible
05 Aug 4.9 21:27:20 10° WNW 21:28:58 14° WSW 21:30:31 10° SW visible
06 Aug 4.7 21:09:19 10° WNW 21:11:18 17° WSW 21:13:15 10° SW visible
07 Aug 4.5 20:51:22 10° NW 20:53:36 21° WSW 20:55:52 10° SSW visible
